Location: City of Moscow
(46.7306°N, 116.9989°W)
Time: 17:04:24
(UTC+00:00)

Cosmos 1626 Rocket - Visible Passes

Search period start: 14 March 2026 00:00
Search period end: 24 March 2026 00:00
Orbit: 597 x 623 km, 82.5° (Epoch: 14 March)

Date Brightness Start Highest point End Pass type
(mag) Time Alt. Az. Time Alt. Az. Time Alt. Az.
14 Mar 5.7 02:33:55 10° SW 02:37:53 31° WNW 02:41:51 10° N visible
14 Mar 3.5 12:37:50 10° N 12:42:15 85° E 12:46:36 10° S visible
15 Mar 6.6 02:49:18 10° WSW 02:52:35 20° WNW 02:55:52 10° NNW visible
15 Mar 6.5 11:15:55 10° NNE 11:18:38 16° ENE 11:21:21 10° ESE visible
15 Mar 3.6 12:52:25 10° NNW 12:56:43 56° W 13:00:57 10° S visible
16 Mar 6.9 03:05:22 10° W 03:07:22 13° WNW 03:09:21 10° NW visible
16 Mar 5.8 11:29:44 10° NNE 11:33:23 25° ENE 11:36:59 10° SE visible
16 Mar 4.2 13:07:10 10° NNW 13:11:06 33° W 13:14:59 10° SSW visible
17 Mar 4.9 11:43:53 10° N 11:48:02 40° ENE 11:52:07 10° SE visible
17 Mar 4.8 13:22:12 10° NW 13:25:25 20° W 13:28:35 10° SW visible
18 Mar 3.8 11:58:14 10° N 12:02:36 69° E 12:06:54 10° SSE visible
19 Mar 6.6 10:36:46 10° NE 10:38:52 13° ENE 10:40:57 10° E visible
19 Mar 3.4 12:12:44 10° NNW 12:17:05 70° W 12:21:23 10° S visible
20 Mar 6.7 02:24:58 10° WSW 02:27:35 15° WNW 02:30:13 10° NNW visible
20 Mar 6.0 10:50:19 10° NNE 10:53:38 21° ENE 10:56:55 10° ESE visible
20 Mar 3.9 12:27:25 10° NNW 12:31:31 40° W 12:35:32 10° SSW visible
21 Mar 5.2 11:04:21 10° N 11:08:19 33° ENE 11:12:14 10° SE visible
21 Mar 4.6 12:42:18 10° NW 12:45:50 24° W 12:49:20 10° SW visible
22 Mar 4.1 11:18:37 10° N 11:22:55 55° ENE 11:26:25 15° SSE visible
22 Mar 5.1 12:57:37 10° NW 13:00:06 15° W 13:02:33 10° WSW visible
23 Mar 6.7 09:58:01 10° NE 09:59:03 11° ENE 10:00:07 10° ENE visible
23 Mar 3.4 11:33:04 10° N 11:37:26 87° W 11:39:15 34° S visible
